2018-102C (43833 NORAD) Tracking and Keplerian Element Data

This shows tracking and keplerian element data for the satellite.

Feedback or suggestion? Click here.




ElementValue
Catalog43833
Name2018-102C
Epoch Orbit452
Epoch Day6.22077257
Epoch Year2019
RAAN83.4495
Inclination97.6237
Eccentricity0.0015712
Argument of Perigee164.3739
Mean Anonmoly272.5784
Mean Motion15.08252424
Decay Rate7.33E-06
L11 43833U 18102C 19006.22077257 .00000733 00000-0 51350-4 0 9992
L22 43833 97.6237 83.4495 0015712 164.3739 272.5784 15.08252424 4528

Live tracking and technical data element details for 2018-102C (NORAD 43833). 2018-102C can be tracked NOW for your location showing map with azimuth and elevation plus other details from your city location.

Track the satellite on the map from your city or location and see movement details for azimuth, elevation, latitude, longitude, range, height, and movement on the map or in text.







IsCatalogInMostPopularTable: catalog: 43833, numindb: 21
Update: records affected: 1



GetName: 43833 2018-102C

Hit Count: updated at: Wed, 23 Jan 2019 02:47:52 GMT